Location: Corte Bragagnani
(45.3000°N, 11.1000°E)
Time: 23:15:02
(UTC+00:00)

Cosmos 1408 - Pass Details

Date: 09 April 2020
Orbit: 471 x 494 km, 82.6° (Epoch: 24 May)

Event Time Altitude Azimuth Distance (km) Brightness Sun altitude
Rises 20:42:36 0° 348° (NNW) 2,564 7.1 -26.5°
Reaches altitude 10° 20:44:43 10° 346° (NNW) 1,682 6.1 -26.7°
Enters shadow 20:46:56 34° 335° (NNW) 826 4.2 -27.0°
